Time,TemperatureF,DewpointF,PressureIn,WindDirection,WindDirectionDegrees,WindSpeedMPH,WindSpeedGustMPH,Humidity,HourlyPrecipIn,Conditions,Clouds,dailyrainin,SoftwareType,DateUTC
2013-12-02 00:00:00,38.2,35.5,30.01,South,178,0.0,4.0,90,0.00,BKN,,0.00,WeatherDisplay:10.37,2013-12-02 05:00:00,
2013-12-02 01:00:00,38.9,35.9,29.99,South,178,0.0,1.0,89,0.00,OVC,,0.00,WeatherDisplay:10.37,2013-12-02 06:00:00,
2013-12-02 02:00:00,39.2,36.5,29.99,South,178,0.0,1.0,90,0.00,OVC,,0.00,WeatherDisplay:10.37,2013-12-02 07:00:00,
2013-12-02 03:00:00,39.4,37.0,29.97,South,178,0.0,3.0,91,0.00,OVC,,0.00,WeatherDisplay:10.37,2013-12-02 08:00:00,
2013-12-02 04:00:00,39.3,37.4,29.96,South,178,0.0,0.0,93,0.00,OVC,,0.00,WeatherDisplay:10.37,2013-12-02 09:00:00,
2013-12-02 05:00:00,39.3,38.0,29.94,ESE,115,0.0,2.0,95,0.00,-DZ,,0.00,WeatherDisplay:10.37,2013-12-02 10:00:00,
2013-12-02 06:00:00,39.6,38.5,29.94,ESE,115,0.0,2.0,96,0.00,OVC,,0.00,WeatherDisplay:10.37,2013-12-02 11:00:00,
2013-12-02 07:00:00,39.9,38.8,29.93,ESE,115,0.0,1.0,96,0.00,OVC,,0.00,WeatherDisplay:10.37,2013-12-02 12:00:00,
2013-12-02 08:00:00,40.1,39.0,29.92,ESE,115,0.0,0.0,96,0.00,OVC,,0.00,WeatherDisplay:10.37,2013-12-02 13:00:00,
2013-12-02 09:00:00,41.0,40.2,29.92,ESE,115,0.0,1.0,97,0.00,OVC,,0.00,WeatherDisplay:10.37,2013-12-02 14:00:00,
2013-12-02 10:00:00,42.3,41.2,29.92,ESE,115,0.0,1.0,96,0.00,-RA,,0.00,WeatherDisplay:10.37,2013-12-02 15:00:00,
2013-12-02 11:00:00,43.4,41.5,29.90,ESE,115,0.0,1.0,93,0.01,OVC,,0.01,WeatherDisplay:10.37,2013-12-02 16:00:00,
2013-12-02 12:00:00,45.4,42.7,29.87,ESE,115,0.0,2.0,90,0.00,OVC,,0.01,WeatherDisplay:10.37,2013-12-02 17:00:00,
2013-12-02 13:00:00,46.3,43.2,29.84,SSE,165,0.0,4.0,89,0.00,OVC,,0.01,WeatherDisplay:10.37,2013-12-02 18:00:00,
2013-12-02 14:00:00,47.0,43.9,29.83,SSE,165,0.0,1.0,89,0.00,OVC,,0.01,WeatherDisplay:10.37,2013-12-02 19:00:00,
2013-12-02 15:00:00,47.1,44.3,29.81,East,101,1.0,2.0,90,0.00,OVC,,0.01,WeatherDisplay:10.37,2013-12-02 20:00:00,
2013-12-02 16:00:00,47.9,44.8,29.80,NNE,28,0.0,2.0,89,0.00,OVC,,0.01,WeatherDisplay:10.37,2013-12-02 21:00:00,
2013-12-02 17:00:00,47.5,44.7,29.81,SE,146,0.0,3.0,90,0.00,OVC,,0.01,WeatherDisplay:10.37,2013-12-02 22:00:00,
2013-12-02 18:00:00,47.0,44.8,29.81,SE,137,0.0,0.0,92,0.00,OVC,,0.01,WeatherDisplay:10.37,2013-12-02 23:00:00,
2013-12-02 19:00:00,46.4,44.5,29.82,SE,137,0.0,0.0,93,0.00,OVC,,0.01,WeatherDisplay:10.37,2013-12-03 00:00:00,
2013-12-02 20:00:00,46.1,44.5,29.82,SE,137,0.0,0.0,94,0.00,OVC,,0.01,WeatherDisplay:10.37,2013-12-03 01:00:00,
2013-12-02 21:00:00,45.9,44.5,29.83,SE,137,0.0,0.0,95,0.00,OVC,,0.01,WeatherDisplay:10.37,2013-12-03 02:00:00,
2013-12-02 22:00:00,45.8,44.5,29.84,SE,137,0.0,0.0,95,0.00,OVC,,0.01,WeatherDisplay:10.37,2013-12-03 03:00:00,
2013-12-02 23:00:00,45.9,44.8,29.83,SE,137,0.0,1.0,96,0.00,OVC,,0.01,WeatherDisplay:10.37,2013-12-03 04:00:00,